Total_Precipitation_Accumulation
0.58 0.42 0.43 0.40 0.34 0.30 0.29 0.35 0.42 0.38 0.35 0.37 0.40 0.41 0.37 0.35 0.33 0.33 0.36 0.40 0.45 0.51 0.58 0.66 0.69 0.74 0.80 0.83 0.71 0.55 0.47 0.44 0.42 0.48 0.56 0.60 0.68 0.76 0.88 0.86 0.93 0.84 0.98
0.43 0.38 0.41 0.38 0.38 0.35 0.35 0.40 0.37 0.33 0.32 0.33 0.34 0.40 0.40 0.36 0.35 0.38 0.40 0.47 0.55 0.65 0.66 0.66 0.69 0.75 0.74 0.68 0.63 0.56 0.45 0.41 0.44 0.59 0.70 0.71 0.88 0.98 1.06 0.99 1.02 1.14 1.00
0.33 0.37 0.40 0.43 0.42 0.39 0.35 0.37 0.32 0.30 0.35 0.39 0.37 0.42 0.47 0.40 0.39 0.38 0.44 0.55 0.68 0.74 0.72 0.73 0.73 0.76 0.76 0.64 0.58 0.57 0.56 0.54 0.60 0.77 1.06 1.07 1.08 1.27 1.29 1.17 1.11 1.02 0.86
0.30 0.38 0.39 0.48 0.49 0.43 0.37 0.37 0.35 0.35 0.38 0.44 0.49 0.51 0.56 0.49 0.46 0.48 0.53 0.59 0.73 0.79 0.78 0.79 0.78 0.80 0.79 0.67 0.61 0.62 0.69 0.77 0.85 1.04 1.35 1.29 1.15 1.43 1.39 1.26 1.16 1.08 1.00
0.36 0.38 0.41 0.44 0.47 0.51 0.50 0.48 0.47 0.45 0.48 0.52 0.60 0.65 0.71 0.65 0.58 0.60 0.63 0.66 0.75 0.79 0.85 0.91 0.91 0.91 0.87 0.81 0.74 0.73 0.76 0.87 1.08 1.31 1.61 1.78 1.78 1.79 1.48 1.32 1.21 1.18 1.17
0.50 0.51 0.44 0.50 0.52 0.65 0.66 0.61 0.59 0.57 0.58 0.64 0.69 0.71 0.76 0.72 0.70 0.75 0.79 0.82 0.89 0.91 0.94 1.00 1.07 1.11 1.05 1.14 0.97 0.90 0.92 1.05 1.16 1.41 1.79 2.09 2.05 2.05 1.68 1.46 1.33 1.34 1.29
0.79 0.76 0.60 0.60 0.60 0.71 0.68 0.67 0.66 0.65 0.66 0.74 0.77 0.74 0.77 0.74 0.72 0.84 0.98 1.02 1.08 1.11 1.02 0.99 1.07 1.13 1.14 1.32 1.33 1.15 1.23 1.34 1.30 1.54 1.85 1.95 2.04 2.07 1.92 1.75 1.57 1.38 1.27
0.95 0.90 0.68 0.64 0.66 0.79 0.81 0.74 0.73 0.72 0.76 0.87 0.89 0.83 0.78 0.77 0.81 0.91 1.05 1.13 1.21 1.18 1.05 1.02 1.03 1.08 1.33 1.48 1.53 1.46 1.40 1.44 1.23 1.38 1.71 1.88 1.76 1.85 2.08 2.00 1.80 1.54 1.32
0.99 1.03 0.86 0.85 0.82 0.84 0.89 0.89 0.93 0.86 0.90 0.99 0.98 1.01 0.93 0.89 1.01 1.10 1.13 1.17 1.20 1.21 1.10 1.03 1.08 1.03 1.15 1.39 1.46 1.45 1.42 1.48 1.33 1.43 1.60 2.02 1.79 1.94 2.18 2.00 1.84 1.65 1.43
1.67 1.69 1.44 1.32 1.19 1.04 1.00 0.94 0.93 0.93 1.04 1.17 1.12 1.09 1.11 1.10 1.14 1.25 1.20 1.21 1.15 1.09 1.07 1.04 1.14 1.16 1.09 1.09 1.11 1.19 1.24 1.21 1.09 1.25 1.72 1.90 1.92 2.33 2.44 2.17 1.97 1.81 1.62
2.40 2.46 2.07 1.64 1.44 1.44 1.32 1.09 1.11 1.06 1.08 1.17 1.20 1.17 1.26 1.52 1.69 1.71 1.46 1.52 1.38 1.24 1.19 1.19 1.17 1.12 1.05 1.02 1.07 1.19 1.16 0.91 1.04 1.30 1.61 1.90 2.08 2.45 2.63 2.35 2.13 2.01 1.84
2.70 2.70 2.39 1.88 1.97 2.13 1.75 1.58 1.49 1.34 1.30 1.27 1.42 1.45 1.59 2.06 2.19 1.90 1.91 1.83 1.77 1.61 1.49 1.47 1.42 1.28 1.15 1.10 1.22 1.25 0.99 0.88 1.18 1.41 1.64 2.06 2.35 2.57 2.56 2.34 2.24 2.19 2.09
2.81 2.51 2.16 2.07 2.11 2.31 2.22 2.04 1.94 1.91 1.95 1.94 1.99 2.04 2.24 2.33 2.19 2.05 2.31 2.16 2.09 1.97 1.91 1.94 1.76 1.50 1.44 1.46 1.45 1.33 1.14 1.17 1.36 1.45 1.70 2.10 2.37 2.62 2.72 2.48 2.29 2.34 2.32
2.70 2.55 2.48 2.48 2.35 2.51 2.79 2.68 2.53 2.48 2.40 2.29 2.32 2.25 2.58 2.74 2.64 2.64 2.73 2.64 2.72 2.71 2.68 2.36 2.14 1.90 1.77 1.59 1.46 1.41 1.42 1.44 1.57 1.74 2.04 2.17 2.25 2.41 2.60 2.62 2.55 2.56 2.48
2.89 2.74 2.70 2.77 2.73 2.85 3.20 3.29 3.01 2.92 2.74 2.55 2.52 2.58 2.75 2.82 2.84 2.98 2.96 3.10 3.02 2.91 2.78 2.55 2.20 2.18 2.01 1.82 1.66 1.55 1.64 1.77 1.84 2.05 2.12 2.21 2.14 2.20 2.50 2.76 2.83 2.91 2.78
3.15 2.92 2.83 2.90 2.82 2.85 3.05 3.23 3.21 3.10 3.17 3.06 2.85 2.81 2.86 2.96 3.08 3.11 3.15 3.12 2.95 2.77 2.79 2.73 2.52 2.46 2.32 2.15 1.92 1.90 1.92 1.91 2.02 2.08 2.17 2.37 2.10 1.99 2.29 2.68 2.93 3.06 3.17
3.39 3.35 3.25 3.26 3.33 3.17 3.14 3.21 3.15 3.18 3.41 3.37 3.32 3.27 3.09 3.02 3.10 3.17 3.25 3.18 3.04 2.94 2.93 2.85 2.80 2.71 2.55 2.41 2.29 2.25 2.24 2.14 2.08 2.12 2.28 2.42 2.36 2.29 2.37 2.49 2.69 2.92 3.15
3.91 3.84 3.45 3.15 3.41 3.43 3.44 3.44 3.47 3.47 3.64 3.59 3.41 3.48 3.32 3.32 3.26 3.25 3.14 2.99 2.94 2.91 3.05 3.11 3.02 3.02 2.87 2.73 2.68 2.43 2.37 2.38 2.22 2.25 2.30 2.30 2.54 2.60 2.61 2.49 2.49 2.69 2.93
4.51 4.27 3.68 3.35 3.46 3.61 3.56 3.70 3.91 4.03 4.00 3.84 3.69 3.74 3.59 3.63 3.55 3.45 3.50 3.43 3.28 3.31 3.28 3.03 3.12 3.21 3.23 3.14 2.77 2.60 2.45 2.45 2.39 2.25 2.27 2.20 2.36 2.58 2.60 2.56 2.56 2.57 2.80
4.62 4.52 4.03 3.75 3.95 3.95 3.81 3.90 4.05 4.13 4.12 4.20 4.23 4.18 4.02 3.94 4.02 4.14 4.14 4.03 3.82 3.68 3.60 3.64 3.61 3.34 3.19 3.15 2.80 2.71 2.58 2.38 2.32 2.26 2.17 2.15 2.19 2.12 2.23 2.28 2.43 2.41 2.53
3.85 3.93 4.08 4.07 4.13 4.14 4.10 4.12 4.31 4.46 4.46 4.43 4.56 4.59 4.42 4.35 4.49 4.82 4.85 4.69 4.38 4.07 3.84 3.76 3.73 3.52 3.24 3.09 3.08 2.91 2.59 2.32 2.28 2.19 2.17 2.16 2.00 1.95 2.08 2.23 2.21 2.12 2.17
3.60 3.79 3.99 3.99 4.18 4.44 4.80 5.30 5.58 5.68 5.55 5.35 5.23 5.14 5.02 4.93 5.01 5.12 5.17 4.82 4.46 4.27 3.99 3.72 3.63 3.47 3.21 3.16 3.14 3.16 2.81 2.59 2.23 1.94 2.02 2.03 1.97 1.98 1.94 1.91 1.98 1.99 1.97
3.20 3.54 3.80 4.12 4.54 5.04 5.68 6.45 6.76 6.51 6.09 5.87 5.51 5.43 5.21 5.00 4.97 5.05 4.77 4.53 4.32 4.11 3.92 3.70 3.62 3.55 3.26 3.14 3.22 3.40 3.09 2.76 2.44 2.17 1.95 1.89 1.96 2.00 1.93 1.88 1.87 1.94 1.94
2.82 3.29 3.75 4.31 4.93 5.57 6.15 6.60 6.80 6.68 6.41 6.11 5.66 5.25 4.85 4.54 4.34 4.23 4.11 3.89 3.78 3.65 3.49 3.32 3.30 3.30 3.20 2.95 2.90 2.80 2.73 2.58 2.54 2.32 2.07 1.89 1.89 1.94 1.92 1.84 1.83 1.89 1.93
2.76 3.23 3.72 4.22 4.94 5.44 5.97 6.35 6.55 6.57 6.47 6.07 5.39 4.73 4.31 3.97 3.71 3.43 3.21 3.10 3.10 3.04 2.84 2.65 2.64 2.65 2.65 2.58 2.53 2.39 2.36 2.36 2.33 2.23 2.11 2.02 1.97 1.85 1.77 1.77 1.76 1.77 1.82
2.70 3.18 3.52 3.88 4.59 5.27 5.77 6.13 6.40 6.37 6.14 5.53 4.82 4.26 3.90 3.60 3.33 3.07 2.88 2.70 2.63 2.54 2.36 2.20 2.15 2.16 2.21 2.23 2.26 2.24 2.13 2.10 2.08 2.12 2.01 1.91 1.89 1.80 1.72 1.67 1.64 1.66 1.73